Regional Weather Roundup
Issued by NWS

Home | Current Version | Previous Version | Graphics & Text | Print | Product List | Glossary On
Versions: 1 2 3 4 5 6 7 8 9 10 11 12 13 14 15 16 17 18 19 20 21 22 23 24 25 26 27 28 29 30 31 32 33 34 35 36 37 38 39 40 41 42 43 44 45 46 47 48 49 50
000
ASUS45 KCYS 281210
RWRWY

WYOMING REGIONAL WEATHER ROUNDUP
NATIONAL WEATHER SERVICE CHEYENNE WY
600 AM MDT FRI AUG 28 2015

NOTE:  "FAIR" INDICATES FEW OR NO CLOUDS BELOW 12,000 FEET
WITH NO SIGNIFICANT WEATHER AND/OR OBSTRUCTIONS TO VISIBILITY.

WYZ001-281300-
YELLOWSTONE NATIONAL PARK

CITY           SKY/WX    TMP DP  RH WIND       PRES   REMARKS
LK YELLOWSTONE   N/A     36  34  92 W3        30.43R
6HR MIN TEMP:  36; 6HR MAX TEMP:  42;

W YELLOWSTONE  NOT AVBL

$$
WYZ002>013-054>058-071-098>099-281300-
NORTHERN WYOMING

CITY           SKY/WX    TMP DP  RH WIND       PRES   REMARKS
JACKSON        FAIR      43  43 100 CALM      30.35S
CODY           FAIR      50  43  76 S6        30.19R
GREYBULL       FAIR      53  50  89 S3        30.15R FOG
6HR MIN TEMP:  53; 6HR MAX TEMP:  66;

WORLAND        FAIR      52  50  93 S3        30.16S FOG
6HR MIN TEMP:  51; 6HR MAX TEMP:  61;

SHERIDAN       FAIR      57  43  59 CALM      30.09R
6HR MIN TEMP:  54; 6HR MAX TEMP:  73;

BUFFALO        FAIR      64  37  36 W8        30.15S
6HR MIN TEMP:  63; 6HR MAX TEMP:  72;

GILLETTE       FAIR      62  44  51 CALM      30.10R
6HR MIN TEMP:  61; 6HR MAX TEMP:  67;

HULETT         FAIR      57  48  72 S8        30.10R
NEWCASTLE      FAIR      55  46  71 N8        30.10S

$$
WYZ014>020-022>026-101>103-281300-
CENTRAL WYOMING

CITY           SKY/WX    TMP DP  RH WIND       PRES   REMARKS
BIG PINEY      FAIR      40  35  83 CALM      30.38S
6HR MIN TEMP:  37; 6HR MAX TEMP:  49;

PINEDALE       FAIR      37  37 100 NW5       30.39S WCI  34
DUBOIS         FAIR      43  37  81 NW16      30.34R
LANDER         FAIR      51  45  79 E3        30.23S
6HR MIN TEMP:  48; 6HR MAX TEMP:  60;

RIVERTON       FAIR      54  49  83 CALM      30.24S
6HR MIN TEMP:  52; 6HR MAX TEMP:  57;

CASPER         FAIR      54  45  71 SW7       30.22S
6HR MIN TEMP:  53; 6HR MAX TEMP:  66;

DOUGLAS        FAIR      61  47  59 NW13      30.18R
6HR MIN TEMP:  61; 6HR MAX TEMP:  67;


$$
WYZ021-027>030-104>119-281300-
SOUTHERN WYOMING

CITY           SKY/WX    TMP DP  RH WIND       PRES   REMARKS
EVANSTON       FAIR      50  38  63 S8        30.37F
6HR MIN TEMP:  49; 6HR MAX TEMP:  59;

KEMMERER       FAIR      45  36  70 N12       30.38F
FORT BRIDGER   SUNNY     50  37  62 W8        30.39F
ROCK SPRINGS   FAIR      52  43  71 E5        30.34F
6HR MIN TEMP:  49; 6HR MAX TEMP:  57;

DIXON          FAIR      45  42  89 E3        30.38R
RAWLINS        FAIR      47  42  83 CALM      30.34R
6HR MIN TEMP:  46; 6HR MAX TEMP:  58;

SARATOGA       FAIR      50  45  81 S8        30.36S
LARAMIE        MOCLDY    47  45  93 S7        30.34R
6HR MIN TEMP:  46; 6HR MAX TEMP:  56;

CHEYENNE       CLOUDY    57  48  72 W10       30.23R
6HR MIN TEMP:  55; 6HR MAX TEMP:  62; 6HR PCP:  0.07;

TORRINGTON     FAIR      56  52  86 W6        30.09R
6HR MIN TEMP:  55; 6HR MAX TEMP:  66;

PINE BLUFFS    FAIR      55  50  82 W7        30.16S

$$



USA.gov is the U.S. government's official web portal to all federal, state and local government web resources and services.